Simultaneous Nadir Overpasses (SNOs) Predictions

Prediction of SNOs between AQUA and METOP-B Satellite Orbit:

Table of predicted SNOs for the next 14.0 days since TLE Epoch: 10/25/2013
Index Date (AQUA) Time (AQUA) Lat,Lon (AQUA) SZA (AQUA ) Date (METOP-B) Time (METOP-B) Lat,Lon (METOP-B) SZA (METOP-B ) Distance(km) Time Diff (sec)
1 10/27/2013 15:43:04 -73.37, 119.39 93.74 10/27/2013 15:41:54 -73.28, 117.82 93.82 50.94 70
2 10/27/2013 16:32:39 73.75, -73.78 86.66 10/27/2013 16:32:25 73.76, -73.77 86.66 0.73 14
3 10/27/2013 17:22:06 -73.82, 93.70 93.26 10/27/2013 17:23:05 -73.81, 93.68 93.28 1.81 59
4 10/30/2013 11:17:25 -73.18,-173.82 93.00 10/30/2013 11:16:17 -73.15,-176.07 93.02 72.39 68
5 10/30/2013 12:07:04 73.77, -7.44 87.61 10/30/2013 12:06:45 73.76, -7.34 87.60 3.20 19
6 10/30/2013 12:56:30 -73.79, 160.17 92.36 10/30/2013 12:57:25 -73.82, 160.13 92.33 3.33 55
7 11/02/2013 06:51:46 -73.04,-107.14 92.24 11/02/2013 06:50:40 -73.00,-109.97 92.26 92.05 66
8 11/02/2013 07:41:27 73.74, 59.04 88.48 11/02/2013 07:41:05 73.76, 59.07 88.50 2.09 22
9 11/02/2013 08:30:54 -73.81,-133.47 91.44 11/02/2013 08:31:45 -73.83,-133.45 91.43 1.79 51
10 11/05/2013 03:15:49 73.76, 125.40 89.37 11/05/2013 03:15:24 73.75, 125.46 89.36 2.14 25
11 11/05/2013 04:05:16 -73.83, -67.10 90.56 11/05/2013 04:06:04 -73.82, -67.04 90.56 1.70 48
12 11/07/2013 22:50:10 73.72,-168.11 90.17 11/07/2013 22:49:44 73.73,-168.17 90.18 2.23 26
13 11/07/2013 23:39:37 -73.79, -0.60 89.76 11/07/2013 23:40:24 -73.81, -0.66 89.73 3.29 47




NCC Satellite Simultaneous Nadir Overpasses (SNOs) Prediction Service
